Regional Weather Roundup
Issued by NWS

Home | Current Version | Previous Version | Text Only | Print | Product List | Glossary Off
Versions: 1 2 3 4 5 6 7 8 9 10 11 12 13 14 15 16 17 18 19 20 21 22 23 24 25 26 27

000
ASUS45 KCYS 290910
RWRWY

WYOMING REGIONAL WEATHER ROUNDUP
NATIONAL WEATHER SERVICE CHEYENNE WY
300 AM MDT WED MAR 29 2017

NOTE:  "FAIR" INDICATES FEW OR NO CLOUDS BELOW 12,000 FEET
WITH NO SIGNIFICANT WEATHER AND/OR OBSTRUCTIONS TO VISIBILITY.

WYZ001-291000-
YELLOWSTONE NATIONAL PARK

CITY           SKY/WX    TMP DP  RH WIND       PRES   REMARKS
LK YELLOWSTONE   N/A     22  19  89 CALM      30.22R
W YELLOWSTONE  NOT AVBL

$$
WYZ002>013-054>058-071-098>099-291000-
NORTHERN WYOMING

CITY           SKY/WX    TMP DP  RH WIND       PRES   REMARKS
JACKSON        FAIR      21  21 100 N5        30.22R WCI  15
CODY           FAIR      42  22  44 W7        30.12S
GREYBULL       FAIR      36  33  89 SE6       30.11F WCI  31
WORLAND        FAIR      35  33  92 S5        30.12S WCI  31
SHERIDAN       FAIR      31  27  85 S3        30.10S
BUFFALO        FAIR      35  25  66 W7        30.11S WCI  29
GILLETTE       FAIR      29  28  96 CALM      30.10F
HULETT         FAIR      36  36 100 SW6       30.10F WCI  31
NEWCASTLE      FOG       39  39 100 S3        30.11F VSB 3/4

$$
WYZ014>020-022>026-101>103-291000-
CENTRAL WYOMING

CITY           SKY/WX    TMP DP  RH WIND       PRES   REMARKS
BIG PINEY      FAIR      27  19  72 CALM      30.18F
PINEDALE       FAIR      25  19  80 W3        30.18F
DUBOIS         FAIR      32  18  55 W16G23    30.14F WCI  21
LANDER         FAIR      34  25  69 W10       30.12F WCI  26
RIVERTON       FAIR      29  28  96 N6        30.13F WCI  23
CASPER         FAIR      28  27  96 W10       30.12F WCI  19
DOUGLAS        CLOUDY    39  36  89 NW5       30.11S

$$
WYZ021-027>030-104>119-291000-
SOUTHERN WYOMING

CITY           SKY/WX    TMP DP  RH WIND       PRES   REMARKS
EVANSTON       FAIR      27  20  75 SW6       30.22S WCI  20
KEMMERER         N/A     30  21  69 N5        30.20S WCI  25
FORT BRIDGER   FAIR      29  26  89 W10       30.24S WCI  20
ROCK SPRINGS   FAIR      30  24  78 SW13      30.17R WCI  20
DIXON            N/A     33  29  83 S3        30.14R
RAWLINS        FAIR      28  25  88 NW8       30.12F WCI  20
SARATOGA       CLOUDY    32  32 100 CALM      30.13R
LARAMIE        CLOUDY    33  32  96 N12       30.09S WCI  24
CHEYENNE       CLOUDY    35  33  92 N9        30.09R WCI  28
TORRINGTON     CLOUDY    39  38  96 E3        30.10S
PINE BLUFFS    CLOUDY    34  34 100 NE6       30.11R WCI  29

$$




USA.gov is the U.S. government's official web portal to all federal, state and local government web resources and services.